Denver, CO

6:29 PM MDT on October 18, 2017 (GMT -0600)
Denver International

Weather History for KDEN - July, 2013

Change the Weather History Date:

Saturday, July 6, 2013

  Actual Average Record
Temperature  
Mean Temperature 78 °F 73 °F  
Max Temperature 92 °F 89 °F 103 °F (1973)
Min Temperature 63 °F 58 °F 44 °F (1908)
Degree Days  
Heating Degree Days 0 0  
Month to date heating degree days 0 1  
Since 1 June heating degree days 29 63  
Since 1 July heating degree days 0 1  
Cooling Degree Days 13 8  
Month to date cooling degree days 56 47  
Year to date cooling degree days 319 202  
Since 1 June cooling degree days 277 180  
Growing Degree Days 27 (Base 50)    
Moisture  
Dew Point 46 °F    
Average Humidity 43    
Maximum Humidity 67    
Minimum Humidity 19    
Precipitation  
Precipitation T in 0.06 in 1.01 in (2001)
Month to date precipitation 0.10 0.34  
Year to date precipitation 6.09 7.85  
Snow  
Snow 0.00 in - - ()
Month to date snowfall 0  
Since 1 June snowfall 0  
Since 1 July snowfall 0  
Snow Depth 0.00 in    
Sea Level Pressure  
Sea Level Pressure 29.75 in    
Wind  
Wind Speed 10 mph (WSW)    
Max Wind Speed 25 mph    
Max Gust Speed 32 mph    
Visibility 10 miles    
Events Rain , Thunderstorm    
T = Trace of Precipitation, MM = Missing Value Source: NWS Daily Summary

Daily Weather History Graph

Daily Weather History Graph

Search for Another Location

Airport or City:

Trip Planner

Search our weather history database for the weather conditions in past years. The results will help you decide how hot, cold, wet, or windy it might be!

Date:

Astronomy

Jul. 06, 2013 Rise Set
Actual Time 5:36 AM MDT 8:29 PM MDT
Civil Twilight 5:04 AM MDT 9:02 PM MDT
Nautical Twilight 4:23 AM MDT 9:42 PM MDT
Astronomical Twilight 3:36 AM MDT 10:29 PM MDT
Moon 4:24 AM MDT (7/6) 7:13 PM MDT (7/6)
Length of Visible Light 15h 57m
Length of Day
14h 52m
Waning Crescent, 2% of the Moon is Illuminated
Jul 6
Waning Crescent
Jul 8
New
Jul 15
First Quarter
Jul 22
Full
Jul 29
Last Quarter

Hourly Weather History & Observations

Time (MDT) Temp. Dew Point Humidity Pressure Visibility Wind Dir Wind Speed Gust Speed Precip Events Conditions
12:53 AM 70.0 °F 52.0 °F 53% 29.64 in 10.0 mi SSW 16.1 mph - N/A   Mostly Cloudy
1:53 AM 69.1 °F 51.1 °F 53% 29.64 in 10.0 mi SSW 13.8 mph - N/A   Mostly Cloudy
2:53 AM 71.1 °F 50.0 °F 47% 29.64 in 10.0 mi SSW 11.5 mph - N/A   Overcast
3:53 AM 70.0 °F 51.1 °F 51% 29.70 in 10.0 mi WNW 18.4 mph 23.0 mph N/A   Overcast
4:53 AM 68.0 °F 53.1 °F 59% 29.72 in 10.0 mi NNW 9.2 mph - N/A   Mostly Cloudy
5:53 AM 63.0 °F 52.0 °F 67% 29.72 in 10.0 mi South 9.2 mph - N/A   Mostly Cloudy
6:53 AM 70.0 °F 48.9 °F 47% 29.71 in 10.0 mi SSW 9.2 mph - N/A   Mostly Cloudy
7:53 AM 72.0 °F 51.1 °F 48% 29.73 in 10.0 mi East 8.1 mph - N/A   Mostly Cloudy
8:53 AM 81.0 °F 45.0 °F 28% 29.73 in 10.0 mi WNW 8.1 mph - N/A   Scattered Clouds
9:53 AM 84.9 °F 44.1 °F 24% 29.73 in 10.0 mi NNW 8.1 mph - N/A   Mostly Cloudy
10:53 AM 86.0 °F 43.0 °F 22% 29.74 in 10.0 mi NE 9.2 mph - N/A   Mostly Cloudy
11:53 AM 88.0 °F 43.0 °F 21% 29.74 in 10.0 mi NE 10.4 mph - N/A   Mostly Cloudy
12:53 PM 89.1 °F 42.1 °F 19% 29.73 in 10.0 mi NW 9.2 mph - N/A   Mostly Cloudy
1:53 PM 90.0 °F 42.1 °F 19% 29.72 in 10.0 mi Variable 6.9 mph 17.3 mph N/A   Mostly Cloudy
1:57 PM 89.6 °F 42.8 °F 20% 30.00 in 10.0 mi North 5.8 mph - N/A   Mostly Cloudy
2:36 PM 87.8 °F 41.0 °F 19% 30.00 in 10.0 mi WNW 6.9 mph - N/A Thunderstorm Thunderstorm
2:53 PM 87.1 °F 41.0 °F 20% 29.73 in 10.0 mi NNW 4.6 mph - N/A Thunderstorm Thunderstorm
3:32 PM 84.2 °F 42.8 °F 23% 30.00 in 10.0 mi SW 18.4 mph - N/A   Overcast
3:53 PM 84.0 °F 43.0 °F 24% 29.74 in 10.0 mi SSW 6.9 mph - 0.00 in   Mostly Cloudy
4:53 PM 82.9 °F 43.0 °F 24% 29.74 in 10.0 mi SSW 13.8 mph - N/A   Mostly Cloudy
5:53 PM 86.0 °F 44.1 °F 23% 29.74 in 10.0 mi SW 9.2 mph - 0.00 in   Mostly Cloudy
6:53 PM 82.9 °F 46.9 °F 28% 29.75 in 10.0 mi ENE 8.1 mph - N/A   Mostly Cloudy
7:53 PM 79.0 °F 46.9 °F 32% 29.77 in 10.0 mi East 4.6 mph - N/A   Scattered Clouds
8:53 PM 73.9 °F 46.0 °F 37% 29.76 in 10.0 mi South 5.8 mph - N/A   Mostly Cloudy
9:53 PM 75.0 °F 46.9 °F 37% 29.77 in 10.0 mi SSW 10.4 mph - N/A   Mostly Cloudy
10:53 PM 73.9 °F 46.9 °F 38% 29.78 in 10.0 mi SSW 13.8 mph - N/A   Scattered Clouds
11:53 PM 72.0 °F 46.9 °F 41% 29.77 in 10.0 mi SSW 13.8 mph - N/A   Scattered Clouds